Location: Newark
(27.9675°N, 86.8869°E)
Time: 14:31:52
(UTC+00:00)

A-11 Canister half - Pass Details

Date: 24 October 2019
Orbit: 1527 x 1682 km, 47.3° (Epoch: 12 November)

Event Time Altitude Azimuth Distance (km) Brightness Sun altitude
Rises 16:02:02 0° 299° (WNW) 4,708 12.0 -58.7°
Reaches altitude 10° 16:06:06 10° 314° (NW) 3,709 11.3 -59.5°
Enters shadow 16:07:26 13° 321° (NW) 3,431 11.1 -59.8°
